Regional Weather Roundup
Issued by NWS

Home | Current Version | Previous Version | Graphics & Text | Print | Product List | Glossary On
Versions: 1 2 3 4 5 6 7 8 9 10 11 12 13 14 15 16 17 18 19 20 21 22 23 24 25 26 27 28 29 30 31 32 33 34 35 36 37 38 39 40 41 42 43 44 45 46 47 48 49 50
000
ASUS45 KABQ 231510
RWRNM
NEW MEXICO REGIONAL WEATHER ROUNDUP
NATIONAL WEATHER SERVICE ALBUQUERQUE NM
900 AM MDT THU MAR 23 2017

NOTE: "FAIR" MEANS FEW OR NO CLOUDS BELOW 12,000 FEET AGL WITH NO
       SIGNIFICANT WEATHER OR OBSTRUCTIONS TO VISION.

      THIS PRODUCT IS RELEASED AS TWO VERSIONS.  ONE VERSION NEAR
      THE TOP OF THE HOUR CONTAINING PRELIMINARY DATA FROM ALBUQUERQUE
      AND OTHER STATIONS.  A FINAL VERSION WITH ADDITIONAL DATA IS
      ISSUED ABOUT 10 MINUTES AFTER THE HOUR.

NMZ501-503-504-510>518-231600-
NORTHWEST PLATEAU/NORTHCENTRAL MOUNTAINS

CITY           SKY/WX    TMP DP  RH WIND       PRES   REMARKS
FARMINGTON     FAIR      49  31  49 S9        29.82F
LOS ALAMOS     FAIR      52  15  23 S13G24    29.90S
SANTA FE       FAIR      54  19  25 NW5       29.88S
TAOS             N/A     54  18  24 SW15      29.89F
ANGEL FIRE     FAIR      50  18  27 SW20G25   29.93S

$$
NMZ402-403-502-505>509-231600-
WESTCENTRAL MOUNTAINS/SOUTHWEST MOUNTAINS

CITY           SKY/WX    TMP DP  RH WIND       PRES   REMARKS
GALLUP         FAIR      44  33  65 S9        29.86F
GRANTS         FAIR      50  29  44 SE13      29.89F
SILVER CITY    FAIR      53  35  49 NW8       29.92F

$$
NMZ407-409-411-412-231600-
SOUTHERN DESERTS

CITY           SKY/WX    TMP DP  RH WIND       PRES   REMARKS
DEMING         FAIR      58  35  42 NW16      29.89R
LAS CRUCES     FAIR      63  18  18 SW5       29.88S
HOLLOMAN AFB   FAIR      70  17  13 S17G23    29.85F
ALAMOGORDO     FAIR      70  21  16 SE23      29.84F
T OR C         FAIR      62  22  21 S14       29.85S

$$
NMZ519>523-231600-
CENTRAL VALLEYS/CENTRAL HIGHLANDS

CITY           SKY/WX    TMP DP  RH WIND       PRES   REMARKS
ALBUQUERQUE    FAIR      59  18  20 SW13      29.86S
DOUBLE EAGLE   SUNNY     57  21  24 SW14      29.88S
MORIARTY ARPT  FAIR      61  19  19 SW29G36   29.90S
CLINES CORNERS FAIR      56  17  21 SW28G38   29.91F
BELEN          FAIR      61  19  20 S12       29.86F
SOCORRO        FAIR      60  20  22 SE12      29.85F

$$
NMZ524>526-539-540-231600-
SOUTHCENTRAL MOUNTAINS

CITY           SKY/WX    TMP DP  RH WIND       PRES   REMARKS
RUIDOSO        FAIR      61  12  15 SW26G35   29.94F

$$
NMZ527>531-231600-
NORTHEAST HIGHLANDS/NORTHEAST PLAINS

CITY           SKY/WX    TMP DP  RH WIND       PRES   REMARKS
LAS VEGAS      FAIR      58  17  20 S25       29.87F
RATON          FAIR      52  30  43 SW3       29.82F
CLAYTON        FAIR      56  51  84 SW14      29.81F

$$
NMZ532>537-231600-
EASTCENTRAL PLAINS

CITY           SKY/WX    TMP DP  RH WIND       PRES   REMARKS
SANTA ROSA     FAIR      56  52  84 CALM      29.84F
TUCUMCARI      FAIR      65  53  65 S12       29.81S
CANNON AFB     FAIR      62  62 100 S17       29.87S
CLOVIS AIRPORT FAIR      63  54  72 S21G26    29.87F

$$
NMZ028-029-538-231600-
SOUTHEAST PLAINS

CITY           SKY/WX    TMP DP  RH WIND       PRES   REMARKS
ROSWELL        FAIR      62  56  80 S15       29.85S
ARTESIA        FAIR      63  63 100 S20G28    29.85F
CARLSBAD       FAIR      64  57  78 S16       29.85S
HOBBS          SUNNY     64  55  72 SE20G25   29.90F


$$




USA.gov is the U.S. government's official web portal to all federal, state and local government web resources and services.